Location: Kerguer�zec
(48.4509°N, 4.7600°W)
Time: 22:40:26
(UTC+00:00)

Cosmos 540 Rocket - Pass Details

Date: 09 April 2020
Orbit: 741 x 753 km, 74.1° (Epoch: 03 June)

Event Time Altitude Azimuth Distance (km) Brightness Sun altitude
Rises 21:26:02 0° 339° (NNW) 3,213 7.8 -21.8°
Reaches altitude 10° 21:28:26 10° 343° (NNW) 2,283 6.8 -22.1°
Maximum altitude 21:33:34 62° 64° (ENE) 843 3.5 -22.7°
Enters shadow 21:34:19 55° 104° (ESE) 896 3.5 -22.8°
